TimeCST,TemperatureF,Dew PointF,Humidity,Sea Level PressureIn,VisibilityMPH,Wind Direction,Wind SpeedMPH,Gust SpeedMPH,PrecipitationIn,Events,Conditions,WindDirDegrees,DateUTC
12:52 AM,16.0,14.0,92,30.06,10.0,North,6.9,-,N/A,,Clear,350,2012-11-29 06:52:00
1:52 AM,19.0,17.1,92,30.05,10.0,NNW,5.8,-,N/A,,Clear,340,2012-11-29 07:52:00
2:52 AM,21.9,19.9,92,30.04,10.0,Variable,3.5,-,N/A,,Clear,0,2012-11-29 08:52:00
3:42 AM,21.2,17.6,86,29.98,10.0,Variable,6.9,-,N/A,,Scattered Clouds,0,2012-11-29 09:42:00
3:52 AM,19.9,19.0,96,30.05,9.0,Calm,Calm,-,N/A,,Mostly Cloudy,0,2012-11-29 09:52:00
4:05 AM,19.4,19.4,100,29.98,1.8,Variable,4.6,-,N/A,,Overcast,0,2012-11-29 10:05:00
4:15 AM,19.4,19.4,100,29.98,0.5,SSE,4.6,-,N/A,Fog,Light Freezing Fog,160,2012-11-29 10:15:00
4:50 AM,21.2,19.4,93,29.97,1.2,ENE,8.1,-,N/A,,Overcast,70,2012-11-29 10:50:00
4:52 AM,21.0,19.9,96,30.04,1.2,ENE,9.2,-,N/A,,Overcast,70,2012-11-29 10:52:00
5:12 AM,21.2,19.4,93,29.98,2.5,NE,4.6,-,N/A,,Overcast,50,2012-11-29 11:12:00
5:37 AM,19.4,19.4,100,29.97,3.0,East,10.4,-,N/A,,Overcast,80,2012-11-29 11:37:00
5:45 AM,19.4,19.4,100,29.97,2.0,ENE,10.4,-,N/A,,Overcast,60,2012-11-29 11:45:00
5:52 AM,19.9,19.0,96,30.06,2.5,ENE,8.1,-,N/A,,Overcast,70,2012-11-29 11:52:00
6:02 AM,19.4,19.4,100,29.97,3.0,ENE,9.2,-,N/A,,Overcast,70,2012-11-29 12:02:00
6:52 AM,19.9,18.0,92,30.06,4.0,East,9.2,-,N/A,,Overcast,100,2012-11-29 12:52:00
7:52 AM,19.9,18.0,92,30.07,5.0,East,6.9,-,N/A,,Overcast,100,2012-11-29 13:52:00
8:52 AM,18.0,16.0,92,30.06,6.0,East,5.8,-,N/A,,Overcast,90,2012-11-29 14:52:00
9:11 AM,17.6,15.8,93,29.98,7.0,East,5.8,-,N/A,,Overcast,100,2012-11-29 15:11:00
9:52 AM,18.0,16.0,92,30.08,6.0,East,4.6,-,N/A,,Overcast,90,2012-11-29 15:52:00
10:52 AM,19.0,16.0,88,30.06,7.0,ENE,12.7,-,N/A,,Overcast,70,2012-11-29 16:52:00
11:52 AM,19.9,18.0,92,30.05,8.0,ENE,9.2,-,N/A,,Overcast,70,2012-11-29 17:52:00
12:52 PM,21.0,18.0,88,30.05,10.0,ENE,6.9,-,N/A,,Overcast,70,2012-11-29 18:52:00
1:19 PM,21.2,19.4,93,29.96,10.0,ENE,8.1,-,N/A,,Overcast,70,2012-11-29 19:19:00
1:52 PM,24.1,19.0,81,30.02,10.0,ENE,9.2,-,N/A,,Mostly Cloudy,70,2012-11-29 19:52:00
2:52 PM,24.1,19.0,81,30.03,10.0,NE,8.1,-,N/A,,Overcast,50,2012-11-29 20:52:00
3:27 PM,24.8,19.4,80,29.94,10.0,ENE,9.2,-,N/A,,Overcast,70,2012-11-29 21:27:00
3:52 PM,24.1,19.0,81,30.02,10.0,East,10.4,-,N/A,,Overcast,90,2012-11-29 21:52:00
4:12 PM,24.8,19.4,80,29.95,10.0,East,8.1,-,N/A,,Overcast,90,2012-11-29 22:12:00
4:35 PM,24.8,19.4,80,29.95,9.0,East,9.2,-,N/A,,Scattered Clouds,90,2012-11-29 22:35:00
4:52 PM,23.0,19.0,85,30.03,9.0,East,8.1,-,N/A,,Partly Cloudy,80,2012-11-29 22:52:00
5:13 PM,23.0,19.4,86,29.96,10.0,ENE,4.6,-,N/A,,Mostly Cloudy,60,2012-11-29 23:13:00
5:52 PM,23.0,19.0,85,30.06,9.0,Calm,Calm,-,N/A,,Overcast,0,2012-11-29 23:52:00
6:52 PM,23.0,19.0,85,30.11,9.0,Calm,Calm,-,N/A,,Overcast,0,2012-11-30 00:52:00
7:52 PM,23.0,19.0,85,30.12,9.0,NE,4.6,-,N/A,,Overcast,50,2012-11-30 01:52:00
8:19 PM,21.2,17.6,86,30.03,8.0,ENE,8.1,-,N/A,,Overcast,70,2012-11-30 02:19:00
8:52 PM,21.9,19.0,89,30.11,8.0,East,10.4,-,N/A,,Overcast,80,2012-11-30 02:52:00
9:37 PM,21.2,19.4,93,30.02,6.0,East,8.1,-,N/A,,Overcast,100,2012-11-30 03:37:00
9:52 PM,21.9,19.9,92,30.12,5.0,ESE,5.8,-,N/A,,Overcast,110,2012-11-30 03:52:00
10:17 PM,21.2,19.4,93,30.04,4.0,SE,5.8,-,N/A,,Overcast,130,2012-11-30 04:17:00
10:52 PM,21.0,21.0,100,30.13,4.0,SSE,5.8,-,N/A,,Overcast,150,2012-11-30 04:52:00
11:52 PM,21.9,21.0,96,30.11,3.0,ESE,6.9,-,N/A,,Overcast,120,2012-11-30 05:52:00